PEGASUS DEB, 25442

Orbit data source: Space-Track

PEGASUS DEB, 25442 is space debris in LEO originally from a launch on Thu, 19 May 1994 UTC launched from the Air Force Western Test Range (AFWTR). Debris objects in space refer to the collection of defunct objects orbiting the Earth. Examples of debris include non-operational satellites, rocket bodies, and fragments generated from explosions, collisions, or faulty payload assembly.

Loading next visibility...
Identifier
25442, 1994-029ADX
Orbit
LEO
Country
Flag of USUS
Related business
Manufacturer
Unknown
Mission
Spacecraft
Bus & Motor
Unknown
Mass
Unknown
Launch date (UTC)
1994-05-19 (32 years ago)
Launch vehicle
Unknown
Launch site
Air Force Western Test Range (AFWTR)
Object type
Payload
Rocket body
Debris
Shape & HBR
Unknown shape, 0.1 m
Radar Cross Section
Small (<0.1 m²)

Expand to show TLE details & history
Last TLE update: 3 days ago

TLE from 3 days ago
0 PEGASUS DEB
1 25442U 94029ADX 26170.40212178  .00003084  00000-0  45070-3 0  9996
2 25442  81.7520 318.5505 0198030 259.4671  98.4168 14.62944247552656
Epoch: 2026-06-19T09:39Z
TLE epoch observation values (Epoch: 2026-06-19T09:39:03.321Z)
Latitude
-0.00005°
Longitude
-93.84496°
Altitude
709.843 km
Speed
7.488 km/s
True Right ascension
21h 14m 12s
True Declination
0° 00' 00"
Sunlit
Object was in full shadow at epoch
Visualization orbit readout
Latitude
Unknown
Longitude
Unknown
Altitude
Unknown
Speed
Unknown
Apparent Right ascension
Unknown
Apparent Declination
Unknown
Sunlit
N/A
Visualization observer readout
Local Sidereal Time
00:51:15
Azimuth
Unknown
Elevation
Unknown
Doppler factor
Unknown
Orbital elements
Apogee altitude
820.548 km
Perigee altitude
540.974 km
Semi-major axis
7,058.898 km
Eccentricity
0.0198
Inclination
81.752°
RAAN
318.5505°
Arg. of periapsis
259.4671°
True anomaly
100.65294°
Mean anomaly
98.4168°
Eccentric anomaly
99.53575°
Mean motion
3.65964 °/min
Orbital period
98.37 mins
BSTAR
0.0004507
Loading maneuver chart data...
Computing Atmospheric mass density...

Documentation

Showing up to 5 results
|